User: anonymous   Login
Location: Unspecified
(0.0000°N, 0.0000°E)
Time: 05:18:50
(UTC+01:00)
Language:

NOAA 12 - Orbit

View from above orbital plane
View from above orbital plane
View from above satellite
View from above satellite

Ground track
Ground track

The orbit data is extracted from the following two-line orbital elements,

1 21263U 91032A   14324.52469942  .00000118  00000-0  68116-4 0  5097
2 21263 098.6501 349.4630 0014641 139.9941 001.6216 14.25702715222833
Epoch (UTC): 20 November 2014 12:35:34
Eccentricity: 0.0014641
inclination: 98.6501°
perigee height: 795 km
apogee height: 816 km
right ascension of ascending node: 349.4630°
argument of perigee: 139.9941°
revolutions per day: 14.25702715
mean anomaly at epoch: 1.6216°
orbit number at epoch: 22283

The dashed part of the orbit path shows where the satellite is in the earth's shadow,  

DLR